Location: Arnolds Mill
(42.3415°N, 73.5951°W)
Time: 05:50:44
(UTC+00:00)

Oscar 11 - Pass Details

Date: 16 May 2026
Orbit: 591 x 601 km, 97.8° (Epoch: 11 June)

Event Time Altitude Azimuth Distance (km) Brightness Sun altitude
Rises 08:37:40 0° 10° (N) 2,860 11.3 -9.3°
Reaches altitude 10° 08:39:51 10° 9° (N) 1,952 10.3 -9.0°
Maximum altitude 08:44:05 73° 285° (WNW) 631 7.0 -8.4°
Drops below altitude 10° 08:48:16 10° 201° (SSW) 1,932 9.1 -7.8°
Enters shadow 08:49:29 - 200° (SSW) 2,435 9.6 -7.6°
